Weather History for La Junta, CO

Change the Weather History Date:

Thursday, May 16, 2013

  Actual Average Record
Temperature  
Mean Temperature 73 °F 63 °F  
Max Temperature 91 °F 78 °F 95 °F (1964)
Min Temperature 54 °F 48 °F 34 °F (1957)
Degree Days  
Heating Degree Days 0 4  
Month to date heating degree days 133 93  
Since 1 July heating degree days 5064 5216  
Cooling Degree Days 8 2  
Month to date cooling degree days 37 19  
Year to date cooling degree days 41 28  
Growing Degree Days 22 (Base 50)    
Moisture  
Dew Point 39 °F    
Average Humidity 40    
Maximum Humidity 72    
Minimum Humidity 7    
Precipitation  
Precipitation 0.00 in 0.05 in 1.78 in (1962)
Month to date precipitation 0.17 0.83  
Year to date precipitation 0.62 3.55  
Sea Level Pressure  
Sea Level Pressure 29.67 in    
Wind  
Wind Speed 8 mph (South)    
Max Wind Speed 26 mph    
Max Gust Speed 33 mph    
Visibility 10 miles    
Events      
T = Trace of Precipitation, MM = Missing Value Source: NWS Daily Summary

Daily Weather History Graph

Daily Weather History Graph

Search for Another Location

Airport:

Trip Planner

Search our weather history database for the weather conditions in past years. The results will help you decide how hot, cold, wet, or windy it might be!

Date:

Astronomy

May. 16, 2013 Rise Set
Actual Time 5:42 AM MDT 7:58 PM MDT
Civil Twilight 5:12 AM MDT 8:28 PM MDT
Nautical Twilight 4:36 AM MDT 9:05 PM MDT
Astronomical Twilight 3:56 AM MDT 9:45 PM MDT
Moon 11:16 AM MDT (5/16) 12:22 AM MDT (5/16)
Length of Visible Light 15h 15m
Length of Day
14h 16m
Waxing Crescent, 36% of the Moon is Illuminated
May 16
Waxing Crescent
May 17
First Quarter
May 24
Full
May 31
Last Quarter
Jun 8
New

Hourly Weather History & Observations

Time (MDT) Temp. Dew Point Humidity Pressure Visibility Wind Dir Wind Speed Gust Speed Precip Events Conditions
12:53 AM 64.0 °F 48.9 °F 58% 29.72 in 10.0 mi ENE 6.9 mph - N/A   Clear
1:53 AM 63.0 °F 48.0 °F 58% 29.71 in 10.0 mi Calm Calm - N/A   Clear
2:53 AM 62.1 °F 48.0 °F 60% 29.72 in 10.0 mi WSW 3.5 mph - N/A   Clear
3:53 AM 57.9 °F 46.9 °F 67% 29.72 in 10.0 mi West 10.4 mph - N/A   Clear
4:53 AM 57.9 °F 48.0 °F 70% 29.72 in 10.0 mi WNW 9.2 mph - N/A   Clear
5:53 AM 55.0 °F 46.0 °F 72% 29.74 in 10.0 mi SSW 3.5 mph - N/A   Clear
6:53 AM 57.0 °F 46.0 °F 67% 29.76 in 10.0 mi West 5.8 mph - N/A   Clear
7:53 AM 63.0 °F 48.0 °F 58% 29.76 in 10.0 mi West 3.5 mph - N/A   Clear
8:53 AM 66.9 °F 48.0 °F 51% 29.75 in 10.0 mi South 5.8 mph - N/A   Clear
9:53 AM 73.0 °F 48.0 °F 41% 29.73 in 10.0 mi Variable 5.8 mph - N/A   Clear
10:53 AM 79.0 °F 45.0 °F 30% 29.70 in 10.0 mi SSE 6.9 mph - N/A   Clear
11:53 AM 82.9 °F 39.9 °F 22% 29.68 in 10.0 mi WSW 6.9 mph - N/A   Clear
12:53 PM 84.9 °F 34.0 °F 16% 29.65 in 10.0 mi SSW 4.6 mph - N/A   Clear
1:53 PM 87.1 °F 28.9 °F 12% 29.63 in 10.0 mi Variable 4.6 mph - N/A   Partly Cloudy
2:53 PM 88.0 °F 25.0 °F 10% 29.61 in 10.0 mi Variable 3.5 mph - N/A   Clear
4:53 PM 90.0 °F 21.9 °F 8% 29.56 in 10.0 mi SE 8.1 mph - N/A   Clear
5:53 PM 89.1 °F 17.1 °F 7% 29.57 in 10.0 mi Variable 5.8 mph - N/A   Clear
6:53 PM 88.0 °F 17.1 °F 7% 29.57 in 10.0 mi Calm Calm - N/A   Clear
7:53 PM 84.0 °F 18.0 °F 9% 29.58 in 10.0 mi Calm Calm - N/A   Clear
8:53 PM 77.0 °F 37.9 °F 24% 29.60 in 10.0 mi ESE 15.0 mph - N/A   Clear
9:53 PM 75.0 °F 44.1 °F 33% 29.61 in 10.0 mi SE 17.3 mph - N/A   Clear
10:30 PM 71.6 °F 44.6 °F 38% 29.81 in 10.0 mi East 13.8 mph - N/A   Clear
10:53 PM 72.0 °F 44.1 °F 37% 29.63 in 10.0 mi East 19.6 mph - N/A   Clear
11:53 PM 69.1 °F 46.0 °F 44% 29.65 in 10.0 mi East 17.3 mph - N/A   Clear